KC3HIX Weather Reports


time (UTC)temp
F
wind
direction
speed
knots
gust
knots
rain 1hr
in
rain 24hr
in
rain mn
in
humidity
%
barometer
mb
20260506051025 60 0 0.0 0.0 0.00 0.00 0.00 73 1007.9
20260506050503 60 0 0.0 0.0 0.00 0.00 0.00 74 1007.9
20260506045003 59 0 0.0 0.0 0.00 0.00 0.00 77 1008.2
20260506044504 59 0 0.0 0.0 0.00 0.00 0.00 77 1007.9
20260506044003 59 0 0.0 0.0 0.00 0.00 0.00 78 1008.2
20260506043504 59 0 0.0 0.0 0.00 0.00 0.00 79 1008.2
20260506043003 59 0 0.0 0.0 0.00 0.00 0.00 79 1008.2
20260506042503 59 0 0.0 0.0 0.00 0.00 0.00 80 1008.2
20260506042003 59 0 0.0 0.0 0.00 0.00 0.00 77 1007.9
20260506041524 59 0 0.0 0.0 0.00 0.00 0.00 77 1007.9
20260506041024 60 0 0.0 0.0 0.00 0.00 0.00 78 1007.9
20260506040503 59 0 0.0 0.0 0.00 0.00 0.00 76 1007.5
20260506040003 60 0 0.0 0.0 0.00 0.00 0.00 76 1007.9
20260506035503 60 0 0.0 0.0 0.00 0.00 0.00 76 1007.9
20260506035004 60 0 0.0 0.0 0.00 0.00 0.00 78 1008.2
20260506034003 60 0 0.0 0.0 0.00 0.00 0.00 77 1007.9
20260506033503 60 0 0.0 0.0 0.00 0.00 0.00 76 1007.9
20260506033004 60 0 0.0 0.0 0.00 0.00 0.00 76 1007.9
20260506032503 60 0 0.0 0.0 0.00 0.00 0.00 77 1007.9
20260506032003 60 0 0.0 0.0 0.00 0.00 0.00 78 1008.2
20260506031524 60 0 0.0 0.0 0.00 0.00 0.00 77 1008.2
20260506031008 60 0 0.0 0.0 0.00 0.00 0.00 75 1007.9
20260506030508 60 0 0.0 0.0 0.00 0.00 0.00 77 1008.2
20260506030008 60 0 0.0 0.0 0.00 0.00 0.00 77 1007.9
20260506025529 60 0 0.0 0.0 0.00 0.00 0.00 76 1007.9
20260506025008 60 0 0.0 0.0 0.00 0.00 0.00 77 1007.9
20260506024508 60 0 0.0 0.0 0.00 0.00 0.00 75 1008.2
20260506024008 60 0 0.0 0.0 0.00 0.00 0.00 74 1008.2
20260506023508 60 0 0.0 0.0 0.00 0.00 0.00 74 1008.2
20260506023008 60 0 0.0 0.0 0.00 0.00 0.00 74 1008.2
20260506022508 60 0 0.0 0.0 0.00 0.00 0.00 74 1008.2
20260506022008 61 0 0.0 0.0 0.00 0.00 0.00 71 1008.2
20260506021508 61 0 0.0 0.0 0.00 0.00 0.00 74 1008.2
20260506021008 61 0 0.0 0.0 0.00 0.00 0.00 72 1008.2
20260506020508 62 0 0.0 0.0 0.00 0.00 0.00 72 1008.2
20260506020008 62 0 0.0 0.0 0.00 0.00 0.00 70 1008.2
20260506015508 62 0 0.0 0.0 0.00 0.00 0.00 69 1008.2
20260506015008 62 0 0.0 0.0 0.00 0.00 0.00 72 1008.2
20260506014508 63 0 0.0 0.0 0.00 0.00 0.00 68 1008.2
20260506014008 63 0 0.0 0.0 0.00 0.00 0.00 69 1008.2
20260506013508 64 0 0.0 0.0 0.00 0.00 0.00 70 1007.9
20260506013008 64 0 0.0 0.0 0.00 0.00 0.00 69 1007.9
20260506012508 64 0 0.0 0.0 0.00 0.00 0.00 68 1007.9
20260506012008 65 0 0.0 0.0 0.00 0.00 0.00 68 1007.9
20260506011508 65 0 0.0 0.0 0.00 0.00 0.00 69 1007.9
20260506011029 65 0 0.0 0.0 0.00 0.00 0.00 66 1007.9
20260506010508 66 0 0.0 0.0 0.00 0.00 0.00 66 1007.9
20260506010008 66 0 0.0 0.0 0.00 0.00 0.00 65 1007.9
20260506005508 67 0 0.0 0.0 0.00 0.00 0.00 64 1007.5
20260506005008 67 0 0.0 0.0 0.00 0.00 0.00 63 1007.5
20260506004508 67 0 0.0 0.0 0.00 0.00 0.00 61 1007.5
20260506004008 68 0 0.0 0.0 0.00 0.00 0.00 59 1007.5
20260506003508 68 0 0.0 0.0 0.00 0.00 0.00 60 1007.5
20260506003008 68 0 0.0 0.0 0.00 0.00 0.00 61 1007.5
20260506002529 69 0 0.0 0.0 0.00 0.00 0.00 59 1007.2
20260506002008 69 0 0.0 0.0 0.00 0.00 0.00 58 1007.2
20260506001508 69 0 0.0 0.0 0.00 0.00 0.00 59 1007.2
20260506001029 70 0 0.0 0.0 0.00 0.00 0.00 56 1007.2
20260506000508 71 0 0.0 0.0 0.00 0.00 0.00 56 1007.2
20260506000008 71 0 0.0 0.0 0.00 0.00 0.00 55 1007.2
20260505235507 72 0 0.0 0.0 0.00 0.00 0.00 52 1007.2
20260505235008 72 0 0.0 0.0 0.00 0.00 0.00 51 1007.2
20260505234507 73 0 0.0 0.0 0.00 0.00 0.00 49 1006.8
20260505234007 73 0 0.0 0.0 0.00 0.00 0.00 48 1007.2
20260505233507 74 0 0.0 0.0 0.00 0.00 0.00 48 1006.8
20260505233007 74 0 0.0 0.0 0.00 0.00 0.00 45 1007.2
20260505232509 75 0 0.0 0.0 0.00 0.00 0.00 44 1006.8
20260505232008 75 0 0.0 0.0 0.00 0.00 0.00 44 1006.8
20260505231508 76 0 0.0 0.0 0.00 0.00 0.00 43 1006.8
20260505231007 76 0 0.0 0.0 0.00 0.00 0.00 43 1006.8
20260505230507 76 0 0.0 0.0 0.00 0.00 0.00 42 1006.8
20260505230007 76 0 0.0 0.0 0.00 0.00 0.00 41 1006.8
20260505225507 77 0 0.0 0.0 0.00 0.00 0.00 42 1006.5
20260505225007 77 0 0.0 0.0 0.00 0.00 0.00 40 1006.5
20260505224507 77 0 0.0 0.0 0.00 0.00 0.00 39 1006.5
20260505224007 77 0 0.0 0.0 0.00 0.00 0.00 39 1006.2
20260505223507 77 0 0.0 0.0 0.00 0.00 0.00 39 1006.2
20260505223007 77 0 0.0 0.0 0.00 0.00 0.00 39 1006.2
20260505222507 77 0 0.0 0.0 0.00 0.00 0.00 38 1006.2
20260505222007 77 0 0.0 0.0 0.00 0.00 0.00 39 1005.8
20260505221507 77 0 0.0 0.0 0.00 0.00 0.00 37 1006.2
20260505221007 77 0 0.0 0.0 0.00 0.00 0.00 36 1006.2
20260505220507 78 0 0.0 0.0 0.00 0.00 0.00 37 1006.2
20260505220007 78 0 0.0 0.0 0.00 0.00 0.00 37 1006.2
20260505215507 78 0 0.0 0.0 0.00 0.00 0.00 37 1006.2
20260505215028 78 0 0.0 0.0 0.00 0.00 0.00 35 1005.8
20260505214507 79 0 0.0 0.0 0.00 0.00 0.00 36 1006.2
20260505214028 79 0 0.0 0.0 0.00 0.00 0.00 36 1006.2
20260505213507 80 0 0.0 0.0 0.00 0.00 0.00 34 1005.8
20260505213007 80 0 0.0 0.0 0.00 0.00 0.00 34 1005.8
20260505212507 80 0 0.0 0.0 0.00 0.00 0.00 34 1005.5
20260505212007 80 0 0.0 0.0 0.00 0.00 0.00 34 1005.5
20260505211507 80 0 0.0 0.0 0.00 0.00 0.00 34 1005.8
20260505211007 80 0 0.0 0.0 0.00 0.00 0.00 33 1005.5
20260505210507 80 0 0.0 0.0 0.00 0.00 0.00 32 1005.5
20260505210007 81 0 0.0 0.0 0.00 0.00 0.00 33 1005.8
20260505205507 81 0 0.0 0.0 0.00 0.00 0.00 33 1005.8
20260505205007 81 0 0.0 0.0 0.00 0.00 0.00 34 1005.5
20260505204528 81 0 0.0 0.0 0.00 0.00 0.00 34 1005.8
20260505204028 81 0 0.0 0.0 0.00 0.00 0.00 34 1005.5
20260505203507 81 0 0.0 0.0 0.00 0.00 0.00 34 1005.5
20260505203007 81 0 0.0 0.0 0.00 0.00 0.00 35 1005.8
20260505202507 81 0 0.0 0.0 0.00 0.00 0.00 34 1005.8
20260505202007 82 0 0.0 0.0 0.00 0.00 0.00 34 1005.8
20260505201507 82 0 0.0 0.0 0.00 0.00 0.00 32 1005.8
20260505201007 82 0 0.0 0.0 0.00 0.00 0.00 34 1005.8
20260505200507 82 0 0.0 0.0 0.00 0.00 0.00 35 1005.8
20260505200007 82 0 0.0 0.0 0.00 0.00 0.00 34 1005.8
20260505195507 82 0 0.0 0.0 0.00 0.00 0.00 34 1005.8
20260505195028 83 0 0.0 0.0 0.00 0.00 0.00 33 1005.8
20260505194507 83 0 0.0 0.0 0.00 0.00 0.00 32 1006.2
20260505194028 84 0 0.0 0.0 0.00 0.00 0.00 34 1006.2
20260505193507 84 0 0.0 0.0 0.00 0.00 0.00 37 1006.2
20260505193007 84 0 0.0 0.0 0.00 0.00 0.00 36 1006.2
20260505192528 83 0 0.0 0.0 0.00 0.00 0.00 38 1006.2
20260505192006 83 0 0.0 0.0 0.00 0.00 0.00 36 1006.2
20260505191507 83 0 0.0 0.0 0.00 0.00 0.00 38 1006.2
20260505191006 83 0 0.0 0.0 0.00 0.00 0.00 36 1006.2
20260505190506 83 0 0.0 0.0 0.00 0.00 0.00 37 1006.2
20260505190027 83 0 0.0 0.0 0.00 0.00 0.00 38 1006.2
20260505185506 82 0 0.0 0.0 0.00 0.00 0.00 39 1006.2
20260505185027 82 0 0.0 0.0 0.00 0.00 0.00 37 1006.2
20260505184506 82 0 0.0 0.0 0.00 0.00 0.00 39 1006.5
20260505184006 82 0 0.0 0.0 0.00 0.00 0.00 39 1006.8
20260505183506 82 0 0.0 0.0 0.00 0.00 0.00 39 1006.5
20260505183006 82 0 0.0 0.0 0.00 0.00 0.00 40 1006.8
20260505182506 82 0 0.0 0.0 0.00 0.00 0.00 42 1006.8
20260505182027 82 0 0.0 0.0 0.00 0.00 0.00 44 1006.8
20260505181506 82 0 0.0 0.0 0.00 0.00 0.00 41 1007.2
20260505181006 82 0 0.0 0.0 0.00 0.00 0.00 40 1007.2
20260505180506 82 0 0.0 0.0 0.00 0.00 0.00 41 1007.2
20260505180006 82 0 0.0 0.0 0.00 0.00 0.00 43 1007.5
20260505175527 82 0 0.0 0.0 0.00 0.00 0.00 40 1007.2
20260505175006 82 0 0.0 0.0 0.00 0.00 0.00 40 1007.5
20260505174506 82 0 0.0 0.0 0.00 0.00 0.00 39 1007.5
20260505174027 82 0 0.0 0.0 0.00 0.00 0.00 41 1007.5
20260505173506 82 0 0.0 0.0 0.00 0.00 0.00 39 1007.5
20260505173006 82 0 0.0 0.0 0.00 0.00 0.00 41 1007.5
20260505172506 82 0 0.0 0.0 0.00 0.00 0.00 41 1007.5
20260505172006 81 0 0.0 0.0 0.00 0.00 0.00 39 1007.2
20260505171506 82 0 0.0 0.0 0.00 0.00 0.00 40 1007.5
20260505171006 82 0 0.0 0.0 0.00 0.00 0.00 41 1007.5
20260505170506 82 0 0.0 0.0 0.00 0.00 0.00 46 1007.5
20260505170006 82 0 0.0 0.0 0.00 0.00 0.00 45 1007.5
20260505165506 82 0 0.0 0.0 0.00 0.00 0.00 41 1007.5
20260505165027 83 0 0.0 0.0 0.00 0.00 0.00 41 1007.5
20260505164506 83 0 0.0 0.0 0.00 0.00 0.00 41 1007.9
20260505164006 83 0 0.0 0.0 0.00 0.00 0.00 40 1007.9
20260505163506 83 0 0.0 0.0 0.00 0.00 0.00 41 1008.2
20260505163007 82 0 0.0 0.0 0.00 0.00 0.00 43 1007.9
20260505162506 82 0 0.0 0.0 0.00 0.00 0.00 42 1008.2
20260505162006 82 0 0.0 0.0 0.00 0.00 0.00 41 1008.6
20260505161506 82 0 0.0 0.0 0.00 0.00 0.00 43 1008.6
20260505161006 82 0 0.0 0.0 0.00 0.00 0.00 43 1008.2
20260505160506 82 0 0.0 0.0 0.00 0.00 0.00 43 1008.6
20260505153006 78 0 0.0 0.0 0.00 0.00 0.00 45 1008.6
20260505152506 78 0 0.0 0.0 0.00 0.00 0.00 44 1008.9
20260505152006 78 0 0.0 0.0 0.00 0.00 0.00 48 1008.9
20260505151506 78 0 0.0 0.0 0.00 0.00 0.00 48 1008.9
20260505151027 78 0 0.0 0.0 0.00 0.00 0.00 46 1008.9
20260505150505 78 0 0.0 0.0 0.00 0.00 0.00 49 1008.9
20260505140505 80 0 0.0 0.0 0.00 0.00 0.00 46 1008.9
20260505125005 75 0 0.0 0.0 0.00 0.00 0.00 51 1009.6
20260505124526 75 0 0.0 0.0 0.00 0.00 0.00 50 1009.6
20260505124026 75 0 0.0 0.0 0.00 0.00 0.00 51 1009.6
20260505123505 74 0 0.0 0.0 0.00 0.00 0.00 50 1009.6
20260505123005 75 0 0.0 0.0 0.00 0.00 0.00 51 1009.6
20260505122505 73 0 0.0 0.0 0.00 0.00 0.00 54 1009.9
20260505122005 72 0 0.0 0.0 0.00 0.00 0.00 55 1009.9
20260505121505 70 0 0.0 0.0 0.00 0.00 0.00 59 1009.9
20260505121005 70 0 0.0 0.0 0.00 0.00 0.00 59 1009.9
20260505120505 69 0 0.0 0.0 0.00 0.00 0.00 60 1009.9
20260505120005 67 0 0.0 0.0 0.00 0.00 0.00 63 1009.3
20260505115505 66 0 0.0 0.0 0.00 0.00 0.00 64 1009.3
20260505115026 65 0 0.0 0.0 0.00 0.00 0.00 66 1009.3
20260505114505 64 0 0.0 0.0 0.00 0.00 0.00 67 1009.3
20260505114026 63 0 0.0 0.0 0.00 0.00 0.00 69 1009.6
20260505113505 62 0 0.0 0.0 0.00 0.00 0.00 71 1009.6
20260505113005 61 0 0.0 0.0 0.00 0.00 0.00 71 1009.6
20260505112505 61 0 0.0 0.0 0.00 0.00 0.00 72 1009.6
20260505112005 60 0 0.0 0.0 0.00 0.00 0.00 72 1009.6
20260505111505 60 0 0.0 0.0 0.00 0.00 0.00 73 1009.3
20260505111005 59 0 0.0 0.0 0.00 0.00 0.00 75 1008.9
20260505110505 59 0 0.0 0.0 0.00 0.00 0.00 76 1009.3
20260505102005 54 0 0.0 0.0 0.00 0.00 0.00 83 1008.9
20260505101505 53 0 0.0 0.0 0.00 0.00 0.00 84 1008.9
20260505101004 53 0 0.0 0.0 0.00 0.00 0.00 83 1008.9
20260505100504 53 0 0.0 0.0 0.00 0.00 0.00 83 1008.9
20260505100004 53 0 0.0 0.0 0.00 0.00 0.00 83 1008.6
20260505095526 53 0 0.0 0.0 0.00 0.00 0.00 84 1008.6
20260505095004 53 0 0.0 0.0 0.00 0.00 0.00 84 1008.6
20260505094504 53 0 0.0 0.0 0.00 0.00 0.00 83 1008.6
20260505094004 53 0 0.0 0.0 0.00 0.00 0.00 83 1008.2
20260505093504 53 0 0.0 0.0 0.00 0.00 0.00 83 1008.6
20260505093004 54 0 0.0 0.0 0.00 0.00 0.00 83 1008.2
20260505092504 54 0 0.0 0.0 0.00 0.00 0.00 82 1008.6
20260505092004 54 0 0.0 0.0 0.00 0.00 0.00 82 1008.6
20260505091504 54 0 0.0 0.0 0.00 0.00 0.00 82 1008.2
20260505091004 54 0 0.0 0.0 0.00 0.00 0.00 81 1008.2
20260505090525 55 0 0.0 0.0 0.00 0.00 0.00 81 1008.2
20260505090005 55 0 0.0 0.0 0.00 0.00 0.00 81 1008.2
20260505085504 55 0 0.0 0.0 0.00 0.00 0.00 80 1008.2
20260505085025 55 0 0.0 0.0 0.00 0.00 0.00 81 1008.2
20260505084504 55 0 0.0 0.0 0.00 0.00 0.00 80 1008.2
20260505084004 55 0 0.0 0.0 0.00 0.00 0.00 80 1008.2
20260505083504 56 0 0.0 0.0 0.00 0.00 0.00 78 1008.2
20260505083005 56 0 0.0 0.0 0.00 0.00 0.00 78 1008.2
20260505082504 56 0 0.0 0.0 0.00 0.00 0.00 77 1008.2
20260505082004 57 0 0.0 0.0 0.00 0.00 0.00 76 1008.2
20260505081504 57 0 0.0 0.0 0.00 0.00 0.00 75 1008.2
20260505081004 58 0 0.0 0.0 0.00 0.00 0.00 73 1008.2
20260505080504 58 0 0.0 0.0 0.00 0.00 0.00 72 1008.2
20260505080004 58 0 0.0 0.0 0.00 0.00 0.00 72 1008.2
20260505075504 58 0 0.0 0.0 0.00 0.00 0.00 71 1008.2
20260505075004 58 0 0.0 0.0 0.00 0.00 0.00 72 1007.9
20260505074504 58 0 0.0 0.0 0.00 0.00 0.00 72 1007.9
20260505074004 58 0 0.0 0.0 0.00 0.00 0.00 73 1008.2
20260505073525 58 0 0.0 0.0 0.00 0.00 0.00 73 1008.2
20260505073004 58 0 0.0 0.0 0.00 0.00 0.00 73 1007.9
20260505072504 57 0 0.0 0.0 0.00 0.00 0.00 74 1007.9
20260505072004 57 0 0.0 0.0 0.00 0.00 0.00 73 1007.9
20260505071504 57 0 0.0 0.0 0.00 0.00 0.00 73 1007.5
20260505071025 57 0 0.0 0.0 0.00 0.00 0.00 73 1008.2
20260505070525 57 0 0.0 0.0 0.00 0.00 0.00 75 1007.9
20260505070004 57 0 0.0 0.0 0.00 0.00 0.00 74 1007.9
20260505065504 57 0 0.0 0.0 0.00 0.00 0.00 74 1007.9
20260505065004 57 0 0.0 0.0 0.00 0.00 0.00 74 1007.9
20260505064525 57 0 0.0 0.0 0.00 0.00 0.00 71 1007.9
20260505064004 58 0 0.0 0.0 0.00 0.00 0.00 71 1007.9
20260505063504 58 0 0.0 0.0 0.00 0.00 0.00 72 1007.9
20260505063004 58 0 0.0 0.0 0.00 0.00 0.00 70 1008.2
20260505062504 58 0 0.0 0.0 0.00 0.00 0.00 69 1008.2
20260505062004 59 0 0.0 0.0 0.00 0.00 0.00 67 1008.2
20260505061504 59 0 0.0 0.0 0.00 0.00 0.00 69 1008.2
20260505061004 59 0 0.0 0.0 0.00 0.00 0.00 68 1008.2
20260505060504 60 0 0.0 0.0 0.00 0.00 0.00 67 1008.2
20260505060024 60 0 0.0 0.0 0.00 0.00 0.00 66 1008.2
20260505055504 60 0 0.0 0.0 0.00 0.00 0.00 64 1008.2